Regional Weather Roundup
Issued by NWS

Home | Current Version | Previous Version | Graphics & Text | Print | Product List | Glossary On
Versions: 1 2 3 4 5 6 7 8 9 10 11 12 13 14 15 16 17 18 19 20 21 22 23 24 25 26 27 28 29 30 31 32 33 34 35 36 37 38 39 40 41 42 43 44 45 46 47 48 49 50
000
ASUS45 KBOU 292007
RWRCO

WEATHER ROUNDUP FOR COLORADO
NATIONAL WEATHER SERVICE DENVER/BOULDER CO
200 PM MDT FRI MAY 29 2015

NOTE: "FAIR" INDICATES FEW OR NO CLOUDS BELOW 12000 FEET WITH NO
SIGNIFICANT WEATHER AND/OR OBSTRUCTIONS TO VISIBILITY.

COZ001>005-013-030-031-292100-
...NORTHWEST COLORADO...

CITY           SKY/WX    TMP DP  RH WIND       PRES   REMARKS
CRAIG          MOSUNNY   62  42  47 NW7       30.28F
HAYDEN         PTSUNNY   57  36  44 W6        30.29F
MEEKER         MOSUNNY   62  43  49 NE8       30.29F
MOUNT WERNER   NOT AVBL
STEAMBOAT SPGS PTSUNNY   56  38  52 CALM      30.30F
WALDEN         CLOUDY    43  34  70 CALM      30.35S
$$

COZ006>008-011-292100-
...WEST CENTRAL VALLEYS...

CITY           SKY/WX    TMP DP  RH WIND       PRES   REMARKS
GRAND JUNCTION SUNNY     71  39  31 VRB3      30.19F
MONTROSE       MOSUNNY   70  32  24 CALM      30.24F
EAGLE          PTSUNNY   70  39  32 W6        30.27F
RIFLE          PTSUNNY   67  38  34 VRB3      30.23F
DELTA          MOSUNNY   76  26  15 SW8       30.19F
NUCLA          MOSUNNY   70  30  23 NW9       30.25F
$$

COZ017>023-064>068-292100-
...SOUTHWEST COLORADO...

CITY           SKY/WX    TMP DP  RH WIND       PRES   REMARKS
DURANGO        SUNNY     71  28  20 SW13G21   30.20F
CORTEZ         SUNNY     72  29  20 N10G20    30.20F
PAGOSA SPRINGS SUNNY     66  20  17 S6        30.25F
TELLURIDE      MOSUNNY   58  23  26 W9G16     30.37S
WOLF CREEK PAS NOT AVBL
$$

COZ009-010-012-014-032>034-037-058>063-292100-
...CENTRAL COLORADO...

CITY           SKY/WX    TMP DP  RH WIND       PRES   REMARKS
ASPEN          PTSUNNY   59  34  39 W7        30.29F
BUENA VISTA    CLOUDY    60  24  25 NW7       30.28S
COPPER MTN     CLOUDY    41  27  56 W9G18     30.48S
BERTHOUD PASS  CLOUDY    30  23  74 NW21G31   30.48F WCI  17
COTTONWOOD PAS CLOUDY    55  25  30 CALM      30.37S
GUNNISON       MOSUNNY   57  32  38 N6        30.32F
KREMMLING      CLOUDY    57  32  38 NE6       30.30F
LEADVILLE      CLOUDY    47  25  42 NW14      30.38S
SALIDA         PTSUNNY   66  28  23 CALM      30.33F
SUNLIGHT       PTSUNNY   46  32  57 W7        30.48S
WILKERSON PASS CLOUDY    45  23  42 W5        30.47R
$$

COZ069>075-292100-
...SAN LUIS VALLEY/SANGRE DE CRISTO MOUNTAINS...

CITY           SKY/WX    TMP DP  RH WIND       PRES   REMARKS
ALAMOSA        PTSUNNY   63  27  25 CALM      30.24F
LA VETA PASS   MOSUNNY  N/A N/A N/A MISG      30.39F
SAGUACHE       SUNNY     64  28  25 N14G21    30.27F
$$

COZ035-036-038>040-292100-
...NORTHERN COLORADO FRONT RANGE...

CITY           SKY/WX    TMP DP  RH WIND       PRES   REMARKS
DENVER INTL AP MOSUNNY   67  44  43 N13       30.20S
DMNS CITY PARK   N/A     67  42  38 E6G13     30.19S
AURORA         MOSUNNY   65  41  41 NE8       30.21S
FRONT RANGE AP PTSUNNY   66  45  45 NW9       30.22R
ERIE MUNI ARPT PTSUNNY   66  42  40 NE7       30.19S
BOULDER MUN AP CLOUDY    66  43  42 E7        30.18F
CENTENNIAL     PTSUNNY   65  38  36 NE8       30.20F
BROOMFIELD     NOT AVBL
FORT COLLINS   MOSUNNY   63  48  59 E15       30.21R
LONGMONT       MOSUNNY   71  45  39 NE7       30.21S
$$

COZ041-046-047-076>085-087-088-292100-
...PIKES PEAK/PALMER DIVIDE AND SOUTHERN FOOTHILLS...

CITY           SKY/WX    TMP DP  RH WIND       PRES   REMARKS
COLO. SPRINGS  PTSUNNY   65  37  35 CALM      30.21F
A. F. ACADEMY  LGT RAIN  62  38  41 E2        30.21F
ELLICOTT       MOSUNNY  N/A N/A N/A N7G17     30.20F THUNDER
FALCON         PTSUNNY   63  36  35 N13       30.25F
FORT CARSON    PTSUNNY   64  46  52 S12       30.19F THUNDER
LIMON          MOSUNNY   63  45  51 N14       30.19F
MONUMENT HILL  PTSUNNY   59  37  44 W9        30.26S
TRINIDAD       MOSUNNY   69  44  40 E13       30.17F
$$

COZ042>045-048>051-090-091-292100-
...NORTHEAST COLORADO...

CITY           SKY/WX    TMP DP  RH WIND       PRES   REMARKS
GREELEY ARPT   PTSUNNY   61  50  67 E9        30.21F
AKRON          CLOUDY    53  48  83 NW26G41   30.20R
BURLINGTON     SUNNY     70  48  45 N15       30.12F
WRAY           MOSUNNY   72  51  48 N14G23    30.10F
STERLING       CLOUDY    63  50  63 N20       30.17R
HOLYOKE        LGT RAIN  59  52  77 N18G29    30.14R
FORT MORGAN    CLOUDY    56  46  69 N10       30.21S
$$

COZ086-089-092>099-292100-
...SOUTHEAST COLORADO...

CITY           SKY/WX    TMP DP  RH WIND       PRES   REMARKS
PUEBLO         MOSUNNY   72  47  40 E10G16    30.13S
LA JUNTA       SUNNY     73  46  38 CALM      30.12F
LAMAR          PTSUNNY   74  50  42 NE12      30.09F
SPRINGFIELD      N/A     69  50  50 NE13      30.12F
$$


USA.gov is the U.S. government's official web portal to all federal, state and local government web resources and services.